TimeEST,TemperatureF,Dew PointF,Humidity,Sea Level PressureIn,VisibilityMPH,Wind Direction,Wind SpeedMPH,Gust SpeedMPH,PrecipitationIn,Events,Conditions,WindDirDegrees,DateUTC
12:15 AM,27.3,18.3,69,29.89,7.0,West,21.9,32.2,N/A,,Overcast,280,2014-01-15 05:15:00
12:35 AM,27.1,16.9,65,29.89,10.0,West,25.3,35.7,N/A,,Overcast,280,2014-01-15 05:35:00
12:55 AM,27.0,16.3,64,29.89,10.0,West,23.0,28.8,N/A,,Overcast,270,2014-01-15 05:55:00
1:15 AM,26.6,17.1,67,29.89,10.0,WNW,21.9,28.8,N/A,,Overcast,290,2014-01-15 06:15:00
1:35 AM,26.1,17.6,70,29.89,7.0,West,20.7,26.5,N/A,,Overcast,280,2014-01-15 06:35:00
1:55 AM,25.9,18.1,73,29.89,7.0,West,24.2,31.1,N/A,Snow,Light Snow,280,2014-01-15 06:55:00
2:15 AM,25.7,17.6,71,29.89,10.0,West,21.9,29.9,N/A,,Overcast,280,2014-01-15 07:15:00
2:35 AM,25.7,16.9,69,29.90,5.0,West,17.3,-,N/A,Snow,Light Snow,270,2014-01-15 07:35:00
2:55 AM,25.5,18.0,73,29.91,10.0,West,23.0,26.5,N/A,Snow,Light Snow,280,2014-01-15 07:55:00
3:15 AM,25.0,18.0,75,29.92,5.0,WNW,21.9,27.6,N/A,Snow,Light Snow,290,2014-01-15 08:15:00
3:35 AM,23.9,17.2,76,29.93,7.0,WNW,20.7,24.2,N/A,,Overcast,290,2014-01-15 08:35:00
3:55 AM,23.9,15.8,71,29.93,10.0,West,17.3,20.7,N/A,Snow,Light Snow,280,2014-01-15 08:55:00
4:15 AM,23.7,16.2,73,29.94,10.0,West,12.7,19.6,N/A,Snow,Light Snow,280,2014-01-15 09:15:00
4:35 AM,23.5,16.7,75,29.94,5.0,West,15.0,-,N/A,Snow,Light Snow,280,2014-01-15 09:35:00
4:55 AM,23.2,17.1,77,29.94,7.0,West,16.1,-,N/A,Snow,Light Snow,280,2014-01-15 09:55:00
5:15 AM,23.0,17.2,79,29.94,10.0,WNW,12.7,-,N/A,,Overcast,290,2014-01-15 10:15:00
5:35 AM,23.2,17.1,77,29.95,10.0,West,18.4,21.9,N/A,Snow,Light Snow,280,2014-01-15 10:35:00
5:55 AM,23.0,16.7,77,29.96,7.0,West,16.1,-,N/A,Snow,Light Snow,280,2014-01-15 10:55:00
6:15 AM,23.0,16.5,76,29.96,5.0,West,16.1,24.2,N/A,Snow,Light Snow,280,2014-01-15 11:15:00
6:35 AM,22.8,16.0,75,29.96,5.0,WNW,18.4,-,N/A,,Haze,290,2014-01-15 11:35:00
6:55 AM,22.6,15.6,74,29.97,10.0,WNW,12.7,-,N/A,,Overcast,290,2014-01-15 11:55:00
7:15 AM,22.1,16.3,79,29.98,10.0,WNW,15.0,-,N/A,,Overcast,300,2014-01-15 12:15:00
7:35 AM,21.7,15.6,77,29.99,10.0,West,16.1,-,N/A,Snow,Light Snow,280,2014-01-15 12:35:00
7:55 AM,21.9,15.1,75,29.99,10.0,West,13.8,-,N/A,,Overcast,280,2014-01-15 12:55:00
8:15 AM,21.9,14.7,74,30.00,4.0,West,12.7,-,N/A,Snow,Light Snow,270,2014-01-15 13:15:00
8:35 AM,21.6,16.5,81,30.01,7.0,WNW,12.7,-,N/A,Snow,Light Snow,290,2014-01-15 13:35:00
8:55 AM,21.4,16.0,80,30.02,10.0,WNW,15.0,18.4,N/A,,Overcast,300,2014-01-15 13:55:00
9:15 AM,21.4,15.4,78,30.03,7.0,WNW,13.8,-,N/A,,Overcast,290,2014-01-15 14:15:00
9:35 AM,21.4,14.9,76,30.04,5.0,WNW,12.7,17.3,N/A,Snow,Light Snow,300,2014-01-15 14:35:00
9:55 AM,21.2,14.9,77,30.05,5.0,WNW,10.4,-,N/A,,Haze,300,2014-01-15 14:55:00
10:15 AM,21.0,14.7,77,30.06,7.0,WNW,12.7,17.3,N/A,Snow,Light Snow,300,2014-01-15 15:15:00
10:35 AM,21.4,13.5,72,30.06,10.0,WNW,15.0,-,N/A,,Scattered Clouds,290,2014-01-15 15:35:00
10:55 AM,21.7,13.3,70,30.06,10.0,West,13.8,-,N/A,,Scattered Clouds,270,2014-01-15 15:55:00
11:15 AM,23.0,14.2,69,30.06,5.0,WNW,12.7,19.6,N/A,,Haze,300,2014-01-15 16:15:00
11:35 AM,22.5,14.0,70,30.06,10.0,WNW,15.0,-,N/A,,Overcast,290,2014-01-15 16:35:00
11:55 AM,22.1,13.3,69,30.06,10.0,WNW,13.8,-,N/A,,Overcast,290,2014-01-15 16:55:00
12:15 PM,22.6,13.8,69,30.05,10.0,WNW,12.7,-,N/A,,Overcast,290,2014-01-15 17:15:00
12:35 PM,22.3,14.2,71,30.04,10.0,WNW,10.4,-,N/A,,Overcast,300,2014-01-15 17:35:00
12:55 PM,22.3,14.0,71,30.04,5.0,West,15.0,-,N/A,,Haze,270,2014-01-15 17:55:00
1:15 PM,21.9,14.0,72,30.03,10.0,West,13.8,-,N/A,,Overcast,280,2014-01-15 18:15:00
1:35 PM,21.7,14.2,73,30.03,10.0,West,13.8,-,N/A,Snow,Light Snow,260,2014-01-15 18:35:00
1:55 PM,21.7,13.8,72,30.03,10.0,West,10.4,-,N/A,,Overcast,260,2014-01-15 18:55:00
2:15 PM,21.7,13.6,71,30.03,7.0,West,11.5,-,N/A,,Overcast,270,2014-01-15 19:15:00
2:35 PM,21.7,13.5,70,30.04,10.0,West,12.7,-,N/A,,Overcast,260,2014-01-15 19:35:00
2:55 PM,21.6,13.5,71,30.04,10.0,West,9.2,-,N/A,,Overcast,280,2014-01-15 19:55:00
3:15 PM,21.7,13.1,69,30.04,7.0,West,9.2,-,N/A,Snow,Light Snow,280,2014-01-15 20:15:00
3:35 PM,21.7,12.9,69,30.05,5.0,WNW,13.8,18.4,N/A,Snow,Light Snow,290,2014-01-15 20:35:00
3:55 PM,21.6,12.9,69,30.05,7.0,West,10.4,-,N/A,Snow,Light Snow,280,2014-01-15 20:55:00
4:15 PM,21.2,13.3,72,30.05,2.5,West,13.8,-,N/A,Snow,Light Snow,280,2014-01-15 21:15:00
4:35 PM,20.8,13.8,74,30.06,10.0,West,10.4,-,N/A,Snow,Light Snow,280,2014-01-15 21:35:00
4:55 PM,21.0,13.6,73,30.07,7.0,West,12.7,-,N/A,Snow,Light Snow,280,2014-01-15 21:55:00
5:15 PM,20.8,13.6,74,30.07,5.0,West,9.2,-,N/A,Snow,Light Snow,270,2014-01-15 22:15:00
5:35 PM,20.7,13.6,74,30.07,5.0,West,10.4,-,N/A,Snow,Light Snow,270,2014-01-15 22:35:00
5:55 PM,20.7,13.8,75,30.06,7.0,West,5.8,-,N/A,Snow,Light Snow,260,2014-01-15 22:55:00
6:15 PM,20.7,13.6,74,30.06,5.0,WSW,8.1,-,N/A,Snow,Light Snow,250,2014-01-15 23:15:00
6:35 PM,20.5,13.3,74,30.06,10.0,WSW,8.1,-,N/A,Snow,Light Snow,240,2014-01-15 23:35:00
6:55 PM,20.5,12.9,73,30.06,7.0,WSW,9.2,-,N/A,Snow,Light Snow,240,2014-01-15 23:55:00
7:15 PM,20.7,12.0,69,30.06,10.0,WSW,10.4,-,N/A,Snow,Light Snow,250,2014-01-16 00:15:00
7:35 PM,20.7,12.4,70,30.06,10.0,West,10.4,-,N/A,Snow,Light Snow,260,2014-01-16 00:35:00
7:55 PM,20.7,12.7,71,30.06,10.0,West,11.5,-,N/A,,Overcast,260,2014-01-16 00:55:00
8:15 PM,20.7,12.9,72,30.06,7.0,WSW,10.4,-,N/A,,Overcast,240,2014-01-16 01:15:00
8:35 PM,20.3,12.0,70,30.06,7.0,WSW,12.7,-,N/A,,Overcast,250,2014-01-16 01:35:00
8:55 PM,20.3,11.7,69,30.06,10.0,West,12.7,-,N/A,Snow,Light Snow,260,2014-01-16 01:55:00
9:15 PM,20.1,12.7,73,30.06,10.0,West,13.8,-,N/A,Snow,Light Snow,260,2014-01-16 02:15:00
9:35 PM,19.9,12.4,72,30.06,10.0,WSW,11.5,-,N/A,,Overcast,250,2014-01-16 02:35:00
9:55 PM,19.8,12.2,72,30.05,7.0,West,11.5,-,N/A,Snow,Light Snow,260,2014-01-16 02:55:00
10:15 PM,19.6,12.6,74,30.04,10.0,WSW,11.5,-,N/A,Snow,Light Snow,250,2014-01-16 03:15:00
10:35 PM,19.6,12.4,74,30.04,5.0,WSW,12.7,-,N/A,Snow,Light Snow,250,2014-01-16 03:35:00
10:55 PM,19.0,10.9,71,30.02,7.0,WSW,9.2,-,N/A,,Overcast,250,2014-01-16 03:55:00
11:15 PM,19.4,12.0,73,30.01,5.0,SW,13.8,-,N/A,Snow,Light Snow,220,2014-01-16 04:15:00
11:35 PM,19.2,11.8,73,30.01,10.0,SW,13.8,-,N/A,,Overcast,220,2014-01-16 04:35:00
11:55 PM,18.3,10.8,72,30.00,10.0,SW,11.5,-,N/A,,Overcast,220,2014-01-16 04:55:00